Zurück zum Katalog

CZ-6A DEB

AktivSSO
NORAD 56661·DEBRIS·🇨🇳 China

Gestartet Nov 11, 2022 von Taiyuan Satellite Launch Center

Loading…

Nächste Überflüge (nächste 24 Stunden)

TLE

AktuellSource: Space-Track

Epoche: Sep 14, 2026, 21:07 UTC

1 56661U 22151AGM 26257.88002843  .00000321  00000-0  11023-3 0  9996
2 56661  98.6719 311.3440 0101709  17.8232 342.6482 14.40116866183270

Verfolge CZ-6A DEB in Echtzeit mit AllMySat

Download on the App Store